Time,TemperatureF,DewpointF,PressureIn,WindDirection,WindDirectionDegrees,WindSpeedMPH,WindSpeedGustMPH,Humidity,HourlyPrecipIn,Conditions,Clouds,dailyrainin,SolarRadiationWatts/m^2,SoftwareType,DateUTC
2013-05-06 00:02:00,48.0,48.0,30.14,SSE,157,2.0,7.0,99,0.21,,,2.07,0.000000,,2013-05-06 04:02:00,
2013-05-06 00:32:00,50.0,50.0,30.14,ESE,104,2.0,8.0,99,0.22,,,2.26,0.000000,,2013-05-06 04:32:00,
2013-05-06 00:43:00,50.0,50.0,30.14,ESE,104,2.0,8.0,99,0.22,,,2.26,0.000000,,2013-05-06 04:43:00,
2013-05-06 00:53:00,50.0,50.0,30.14,ESE,104,2.0,8.0,99,0.22,,,2.26,0.000000,,2013-05-06 04:53:00,
2013-05-06 01:02:00,50.0,50.0,30.14,ESE,104,2.0,8.0,99,0.22,,,2.26,0.000000,,2013-05-06 05:02:00,
2013-05-06 01:32:00,50.0,50.0,30.12,SSE,160,1.0,6.0,99,0.04,,,2.29,0.000000,,2013-05-06 05:32:00,
2013-05-06 01:42:00,50.0,50.0,30.12,SSE,160,1.0,6.0,99,0.04,,,2.29,0.000000,,2013-05-06 05:42:00,
2013-05-06 01:52:00,50.0,50.0,30.12,SSE,160,1.0,6.0,99,0.04,,,2.29,0.000000,,2013-05-06 05:52:00,
2013-05-06 02:02:00,50.0,50.0,30.12,SSE,160,1.0,6.0,99,0.04,,,2.29,0.000000,,2013-05-06 06:02:00,
2013-05-06 02:32:00,49.0,49.0,30.12,NE,49,1.0,7.0,99,0.00,,,2.23,0.000000,,2013-05-06 06:32:00,
2013-05-06 02:42:00,49.0,49.0,30.12,NE,49,1.0,7.0,99,0.00,,,2.23,0.000000,,2013-05-06 06:42:00,
2013-05-06 02:52:00,49.0,49.0,30.12,NE,49,1.0,7.0,99,0.00,,,2.23,0.000000,,2013-05-06 06:52:00,
2013-05-06 03:01:00,49.0,49.0,30.12,NE,49,1.0,7.0,99,0.00,,,2.23,0.000000,,2013-05-06 07:01:00,
2013-05-06 03:32:00,51.0,51.0,30.10,WNW,283,2.0,11.0,99,0.00,,,2.21,0.000000,,2013-05-06 07:32:00,
2013-05-06 03:42:00,51.0,51.0,30.10,WNW,283,2.0,11.0,99,0.00,,,2.21,0.000000,,2013-05-06 07:42:00,
2013-05-06 03:52:00,51.0,51.0,30.10,WNW,283,2.0,11.0,99,0.00,,,2.21,0.000000,,2013-05-06 07:52:00,
2013-05-06 04:02:00,51.0,51.0,30.10,WNW,283,2.0,11.0,99,0.00,,,2.21,0.000000,,2013-05-06 08:02:00,
2013-05-06 04:32:00,51.0,49.0,30.12,ESE,115,4.0,12.0,92,0.00,,,2.18,0.000000,,2013-05-06 08:32:00,
2013-05-06 04:42:00,51.0,49.0,30.12,ESE,115,4.0,12.0,92,0.00,,,2.18,0.000000,,2013-05-06 08:42:00,
2013-05-06 04:52:00,51.0,49.0,30.12,ESE,115,4.0,12.0,92,0.00,,,2.18,0.000000,,2013-05-06 08:52:00,
2013-05-06 05:02:00,51.0,49.0,30.12,ESE,115,4.0,12.0,92,0.00,,,2.18,0.000000,,2013-05-06 09:02:00,
2013-05-06 05:33:00,51.0,49.0,30.10,East,95,4.0,9.0,93,0.00,,,2.09,0.000000,,2013-05-06 09:33:00,
2013-05-06 05:43:00,51.0,49.0,30.10,East,95,4.0,9.0,93,0.00,,,2.09,0.000000,,2013-05-06 09:43:00,
2013-05-06 05:53:00,51.0,49.0,30.10,East,95,4.0,9.0,93,0.00,,,2.09,0.000000,,2013-05-06 09:53:00,
2013-05-06 06:03:00,51.0,49.0,30.10,East,95,4.0,9.0,93,0.00,,,2.09,0.000000,,2013-05-06 10:03:00,
2013-05-06 06:33:00,53.0,50.0,30.12,East,99,4.0,8.0,91,0.00,,,2.05,0.000000,,2013-05-06 10:33:00,
2013-05-06 06:42:00,53.0,50.0,30.12,East,99,4.0,8.0,91,0.00,,,2.05,0.000000,,2013-05-06 10:42:00,
2013-05-06 06:52:00,53.0,50.0,30.12,East,99,4.0,8.0,91,0.00,,,2.05,0.000000,,2013-05-06 10:52:00,
2013-05-06 07:02:00,53.0,50.0,30.12,East,99,4.0,8.0,91,0.00,,,2.05,0.000000,,2013-05-06 11:02:00,
2013-05-06 07:32:00,51.0,50.0,30.13,ENE,72,3.0,7.0,95,0.01,,,2.04,3.000000,,2013-05-06 11:32:00,
2013-05-06 07:42:00,51.0,50.0,30.13,ENE,72,3.0,7.0,95,0.01,,,2.04,3.000000,,2013-05-06 11:42:00,
2013-05-06 07:52:00,51.0,50.0,30.13,ENE,72,3.0,7.0,95,0.01,,,2.04,3.000000,,2013-05-06 11:52:00,
2013-05-06 08:02:00,51.0,50.0,30.13,ENE,72,3.0,7.0,95,0.01,,,2.04,3.000000,,2013-05-06 12:02:00,
2013-05-06 08:32:00,52.0,50.0,30.15,SE,129,4.0,10.0,93,0.00,,,-99.99,30.000000,,2013-05-06 12:32:00,
2013-05-06 08:42:00,52.0,50.0,30.15,SE,129,4.0,10.0,93,0.00,,,-99.99,30.000000,,2013-05-06 12:42:00,
2013-05-06 08:52:00,52.0,50.0,30.15,SE,129,4.0,10.0,93,0.00,,,-99.99,30.000000,,2013-05-06 12:52:00,
2013-05-06 09:01:00,52.0,50.0,30.15,SE,129,4.0,10.0,93,0.00,,,-99.99,30.000000,,2013-05-06 13:01:00,
2013-05-06 10:32:00,58.0,51.0,30.16,South,180,7.0,15.0,78,-99.99,,,1.58,347.000000,,2013-05-06 14:32:00,
2013-05-06 10:42:00,58.0,51.0,30.16,South,180,7.0,15.0,78,-99.99,,,1.58,347.000000,,2013-05-06 14:42:00,
2013-05-06 10:52:00,58.0,51.0,30.16,South,180,7.0,15.0,78,-99.99,,,1.58,347.000000,,2013-05-06 14:52:00,
2013-05-06 11:01:00,58.0,51.0,30.16,South,180,7.0,15.0,78,-99.99,,,1.58,347.000000,,2013-05-06 15:01:00,
2013-05-06 11:33:00,58.0,47.0,30.17,SSE,147,5.0,19.0,67,0.00,,,1.42,494.000000,,2013-05-06 15:33:00,
2013-05-06 11:43:00,58.0,47.0,30.17,SSE,147,5.0,19.0,67,0.00,,,1.42,494.000000,,2013-05-06 15:43:00,
2013-05-06 11:53:00,58.0,47.0,30.17,SSE,147,5.0,19.0,67,0.00,,,1.42,494.000000,,2013-05-06 15:53:00,
2013-05-06 12:03:00,58.0,47.0,30.17,SSE,147,5.0,19.0,67,0.00,,,1.42,494.000000,,2013-05-06 16:03:00,
2013-05-06 12:33:00,60.0,46.0,30.16,SE,144,10.0,23.0,60,0.00,,,1.32,469.000000,,2013-05-06 16:33:00,
2013-05-06 12:42:00,60.0,46.0,30.16,SE,144,10.0,23.0,60,0.00,,,1.32,469.000000,,2013-05-06 16:42:00,
2013-05-06 12:52:00,60.0,46.0,30.16,SE,144,10.0,23.0,60,0.00,,,1.32,469.000000,,2013-05-06 16:52:00,
2013-05-06 13:03:00,60.0,46.0,30.16,SE,144,10.0,23.0,60,0.00,,,1.32,469.000000,,2013-05-06 17:03:00,
2013-05-06 15:32:00,65.0,39.0,30.14,South,190,8.0,22.0,38,-99.99,,,-99.99,1149.000000,,2013-05-06 19:32:00,
2013-05-06 15:42:00,65.0,39.0,30.14,South,190,8.0,22.0,38,-99.99,,,-99.99,1149.000000,,2013-05-06 19:42:00,
2013-05-06 15:52:00,65.0,39.0,30.14,South,190,8.0,22.0,38,-99.99,,,-99.99,1149.000000,,2013-05-06 19:52:00,
2013-05-06 16:02:00,65.0,39.0,30.14,South,190,8.0,22.0,38,-99.99,,,-99.99,1149.000000,,2013-05-06 20:02:00,
2013-05-06 16:32:00,67.0,33.0,30.13,SSE,157,10.0,22.0,28,0.00,,,1.02,1075.000000,,2013-05-06 20:32:00,
2013-05-06 16:42:00,67.0,33.0,30.13,SSE,157,10.0,22.0,28,0.00,,,1.02,1075.000000,,2013-05-06 20:42:00,
2013-05-06 16:52:00,67.0,33.0,30.13,SSE,157,10.0,22.0,28,0.00,,,1.02,1075.000000,,2013-05-06 20:52:00,
2013-05-06 17:01:00,67.0,33.0,30.13,SSE,157,10.0,22.0,28,0.00,,,1.02,1075.000000,,2013-05-06 21:01:00,
2013-05-06 17:33:00,65.0,34.0,30.12,ESE,121,6.0,23.0,31,0.00,,,-99.99,912.000000,,2013-05-06 21:33:00,
2013-05-06 17:43:00,65.0,34.0,30.12,ESE,121,6.0,23.0,31,0.00,,,-99.99,912.000000,,2013-05-06 21:43:00,
2013-05-06 17:53:00,65.0,34.0,30.12,ESE,121,6.0,23.0,31,0.00,,,-99.99,912.000000,,2013-05-06 21:53:00,
2013-05-06 18:03:00,65.0,34.0,30.12,ESE,121,6.0,23.0,31,0.00,,,-99.99,912.000000,,2013-05-06 22:03:00,
2013-05-06 18:33:00,64.0,39.0,30.12,SE,145,9.0,20.0,40,0.00,,,1.02,638.000000,,2013-05-06 22:33:00,
2013-05-06 18:45:00,64.0,39.0,30.12,SE,145,9.0,20.0,40,0.00,,,1.02,638.000000,,2013-05-06 22:45:00,
2013-05-06 18:52:00,64.0,39.0,30.12,SE,145,9.0,20.0,40,0.00,,,1.02,638.000000,,2013-05-06 22:52:00,
2013-05-06 19:03:00,64.0,39.0,30.12,SE,145,9.0,20.0,40,0.00,,,1.02,638.000000,,2013-05-06 23:03:00,
2013-05-06 19:32:00,60.0,41.0,30.13,SSE,160,8.0,17.0,49,0.00,,,0.89,351.000000,,2013-05-06 23:32:00,
2013-05-06 19:42:00,60.0,41.0,30.13,SSE,160,8.0,17.0,49,0.00,,,0.89,351.000000,,2013-05-06 23:42:00,
2013-05-06 19:52:00,60.0,41.0,30.13,SSE,160,8.0,17.0,49,0.00,,,0.89,351.000000,,2013-05-06 23:52:00,
2013-05-06 20:01:00,60.0,41.0,30.13,SSE,160,8.0,17.0,49,0.00,,,0.89,351.000000,,2013-05-07 00:01:00,
2013-05-06 21:32:00,55.0,42.0,30.20,SSE,159,4.0,11.0,61,-99.99,,,0.74,3.000000,,2013-05-07 01:32:00,
2013-05-06 21:42:00,55.0,42.0,30.20,SSE,159,4.0,11.0,61,-99.99,,,0.74,3.000000,,2013-05-07 01:42:00,
2013-05-06 21:53:00,55.0,42.0,30.20,SSE,159,4.0,11.0,61,-99.99,,,0.74,3.000000,,2013-05-07 01:53:00,
2013-05-06 22:02:00,55.0,42.0,30.20,SSE,159,4.0,11.0,61,-99.99,,,0.74,3.000000,,2013-05-07 02:02:00,
2013-05-06 22:32:00,53.0,42.0,30.22,SSE,156,3.0,8.0,66,0.00,,,0.48,0.000000,,2013-05-07 02:32:00,
2013-05-06 22:42:00,53.0,42.0,30.22,SSE,156,3.0,8.0,66,0.00,,,0.48,0.000000,,2013-05-07 02:42:00,
2013-05-06 22:52:00,53.0,42.0,30.22,SSE,156,3.0,8.0,66,0.00,,,0.48,0.000000,,2013-05-07 02:52:00,
2013-05-06 23:02:00,53.0,42.0,30.22,SSE,156,3.0,8.0,66,0.00,,,0.48,0.000000,,2013-05-07 03:02:00,
2013-05-06 23:33:00,48.0,44.0,30.24,WNW,303,1.0,7.0,87,0.00,,,0.27,0.000000,,2013-05-07 03:33:00,
2013-05-06 23:43:00,48.0,44.0,30.24,WNW,303,1.0,7.0,87,0.00,,,0.27,0.000000,,2013-05-07 03:43:00,
2013-05-06 23:53:00,48.0,44.0,30.24,WNW,303,1.0,7.0,87,0.00,,,0.27,0.000000,,2013-05-07 03:53:00,